2023/09/09 00:00:00, 0.7,20.4
2023/09/09 00:10:00, 0.7,20.4
2023/09/09 00:20:00, 0.7,20.4
2023/09/09 00:30:00, 0.7,20.4
2023/09/09 00:40:00, 0.7,20.2
2023/09/09 00:50:00, 0.7,20.4
2023/09/09 01:00:00, 0.6,20.4
2023/09/09 01:10:00, 0.7,20.4
2023/09/09 01:20:00, 0.7,20.4
2023/09/09 01:30:00, 0.7,20.4
2023/09/09 01:40:00, 0.8,20.4
2023/09/09 01:50:00, 0.7,20.4
2023/09/09 02:00:00, 0.7,20.4
2023/09/09 02:10:00, 0.7,20.4
2023/09/09 02:20:00, 0.7,20.3
2023/09/09 02:30:00, 0.7,20.2
2023/09/09 02:40:00, 0.8,20.1
2023/09/09 02:50:00, 0.8,20.0
2023/09/09 03:00:00, 0.8,20.2
2023/09/09 03:10:00, 0.8,19.9
2023/09/09 03:20:00, 0.8,20.0
2023/09/09 03:30:00, 0.8,19.7
2023/09/09 03:40:00, 0.8,20.2
2023/09/09 03:50:00, 0.8,19.9
2023/09/09 04:00:00, 0.8,19.9
2023/09/09 04:10:00, 0.8,20.0
2023/09/09 04:20:00, 0.8,20.0
2023/09/09 04:30:00, 0.8,20.2
2023/09/09 04:40:00, 0.8,20.1
2023/09/09 04:50:00, 0.8,20.0
2023/09/09 05:00:00, 0.8,20.1
2023/09/09 05:10:00, 0.8,20.0
2023/09/09 05:20:00, 0.8,19.9
2023/09/09 05:30:00, 0.8,20.0
2023/09/09 05:40:00, 0.8,19.9
2023/09/09 05:50:00, 0.8,20.1
2023/09/09 06:00:00, 0.8,19.9
2023/09/09 06:10:00, 0.8,20.1
2023/09/09 06:20:00, 0.8,20.0
2023/09/09 06:30:00, 0.7,20.0
2023/09/09 06:40:00, 0.7,20.2
2023/09/09 06:50:00, 0.7,22.7
2023/09/09 07:00:00, 0.8,27.2
2023/09/09 07:10:00, 0.8,30.8
2023/09/09 07:20:00, 0.7,31.4
2023/09/09 07:30:00, 0.6,31.4
2023/09/09 07:40:00, 0.6,29.5
2023/09/09 07:50:00, 0.5,26.8
2023/09/09 08:00:00, 0.6,24.7
2023/09/09 08:10:00, 0.6,27.5
2023/09/09 08:20:00, 0.5,27.2
2023/09/09 08:30:00, 0.5,26.8
2023/09/09 08:40:00, 0.5,25.7
2023/09/09 08:50:00, 0.6,26.2
2023/09/09 09:00:00, 0.6,26.8
2023/09/09 09:10:00, 0.5,27.5
2023/09/09 09:20:00, 0.6,27.6
2023/09/09 09:30:00, 0.7,28.1
2023/09/09 09:40:00, 0.7,28.7
2023/09/09 09:50:00, 0.7,28.5
2023/09/09 10:00:00, 0.7,27.7
2023/09/09 10:10:00, 0.6,27.9
2023/09/09 10:20:00, 0.5,27.5
2023/09/09 10:30:00, 0.5,27.1
2023/09/09 10:40:00, 0.5,26.9
2023/09/09 10:50:00, 0.5,26.9
2023/09/09 11:00:00, 0.6,26.3
2023/09/09 11:10:00, 0.6,25.9
2023/09/09 11:20:00, 0.5,25.7
2023/09/09 11:30:00, 0.6,25.6
2023/09/09 11:40:00, 0.6,25.5
2023/09/09 11:50:00, 0.6,25.9
2023/09/09 12:00:00, 0.5,25.3
2023/09/09 12:10:00, 0.6,26.5
2023/09/09 12:20:00, 0.6,26.7
2023/09/09 12:30:00, 0.6,26.9
2023/09/09 12:40:00, 0.6,26.0
2023/09/09 12:50:00, 0.6,24.6
2023/09/09 13:00:00, 0.7,24.5
2023/09/09 13:10:00, 0.7,25.6
2023/09/09 13:20:00, 0.7,26.5
2023/09/09 13:30:00, 0.6,27.0
2023/09/09 13:40:00, 0.6,26.8
2023/09/09 13:50:00, 0.6,27.0
2023/09/09 14:00:00, 0.6,25.0
2023/09/09 14:10:00, 0.6,24.0
2023/09/09 14:20:00, 0.7,23.9
2023/09/09 14:30:00, 0.7,23.5
2023/09/09 14:40:00, 0.7,22.6
2023/09/09 14:50:00, 0.8,23.1
2023/09/09 15:00:00, 0.8,24.0
2023/09/09 15:10:00, 0.7,23.9
2023/09/09 15:20:00, 0.7,24.1
2023/09/09 15:30:00, 0.7,24.1
2023/09/09 15:40:00, 0.7,23.9
2023/09/09 15:50:00, 0.7,24.5
2023/09/09 16:00:00, 0.7,24.3
2023/09/09 16:10:00, 0.7,24.9
2023/09/09 16:20:00, 0.7,24.6
2023/09/09 16:30:00, 0.7,24.8
2023/09/09 16:40:00, 0.7,25.2
2023/09/09 16:50:00, 0.7,24.8
2023/09/09 17:00:00, 0.8,24.5
2023/09/09 17:10:00, 0.7,24.3
2023/09/09 17:20:00, 0.7,24.0
2023/09/09 17:30:00, 0.7,23.7
2023/09/09 17:40:00, 0.7,23.6
2023/09/09 17:50:00, 0.7,23.4
2023/09/09 18:00:00, 0.7,23.2
2023/09/09 18:10:00, 0.7,23.2
2023/09/09 18:20:00, 0.7,23.0
2023/09/09 18:30:00, 0.8,22.4
2023/09/09 18:40:00, 0.8,22.5
2023/09/09 18:50:00, 0.7,22.3
2023/09/09 19:00:00, 0.8,22.2
2023/09/09 19:10:00, 0.8,22.1
2023/09/09 19:20:00, 0.7,22.1
2023/09/09 19:30:00, 0.8,22.2
2023/09/09 19:40:00, 0.7,22.2
2023/09/09 19:50:00, 0.7,21.9
2023/09/09 20:00:00, 0.7,22.0
2023/09/09 20:10:00, 0.7,22.0
2023/09/09 20:20:00, 0.7,22.1
2023/09/09 20:30:00, 0.8,22.1
2023/09/09 20:40:00, 0.7,22.0
2023/09/09 20:50:00, 0.8,21.9
2023/09/09 21:00:00, 0.8,22.1
2023/09/09 21:10:00, 0.7,21.9
2023/09/09 21:20:00, 0.7,21.8
2023/09/09 21:30:00, 0.7,21.6
2023/09/09 21:40:00, 0.7,21.4
2023/09/09 21:50:00, 0.8,21.3
2023/09/09 22:00:00, 0.8,21.5
2023/09/09 22:10:00, 0.8,21.4
2023/09/09 22:20:00, 0.8,21.2
2023/09/09 22:30:00, 0.7,21.1
2023/09/09 22:40:00, 0.7,21.1
2023/09/09 22:50:00, 0.7,20.9
2023/09/09 23:00:00, 0.8,20.8
2023/09/09 23:10:00, 0.7,20.4
2023/09/09 23:20:00, 0.7,20.6
2023/09/09 23:30:00, 0.7,20.6
2023/09/09 23:40:00, 0.7,20.4
2023/09/09 23:50:00, 0.7,20.5
